sat.trackr.live / text

‹ back to catalog

2024-199AC

NORAD 61761 · 2024-199AC

PAYLOAD ACTIVE UNKNOWN

§ Identity

Operator
Country
TBD
Launch date
2024-11-04
Launch site
VOSTO
Launch vehicle
Mass (kg)
RCS (m²)

External: N2YO · Heavens-Above · Gunter

§ Orbital elements

Epoch: 2026-05-25T04:25:17.148864Z

Period
92.60 min
Inclination
97.2960°
Eccentricity
0.0005432
Mean motion
15.55047274 rev/d
Perigee alt
398.3 km
Apogee alt
405.7 km
Semi-major
6,780.2 km
B*
5.8029e-4
RAAN
21.2170°
Arg perigee
20.5731°
Mean anomaly
339.5741°
Rev number
13,403

§ Raw data

2024-199AC1 61761U 24199AC  26145.18422626  .00039023  00000+0  58029-3 0  99982 61761  97.2960  21.2170 0005432  20.5731 339.5741 15.55047274134034

JSON: /api/v1/satellites/61761 · /tle

For live sub-satellite position, see the globe view (requires WebGL).

§ Visibility from observer

Set your observer location to see the next 7 days of passes ≥ 10°. The values pass through the URL so the page stays shareable.

No JS? Fill the form by hand. The geolocation button needs JavaScript.